Year,Month,Day,Hour,Minute,Value (Times are PST for temperature in C)
2019,08,04,00,00,22.80
2019,08,04,00,01,22.80
2019,08,04,00,02,22.80
2019,08,04,00,03,22.70
2019,08,04,00,04,22.70
2019,08,04,00,05,22.70
2019,08,04,00,06,22.70
2019,08,04,00,07,22.70
2019,08,04,00,08,22.70
2019,08,04,00,09,22.70
2019,08,04,00,10,22.70
2019,08,04,00,11,22.70
2019,08,04,00,12,22.70
2019,08,04,00,13,22.70
2019,08,04,00,14,22.80
2019,08,04,00,15,22.80
2019,08,04,00,16,22.80
2019,08,04,00,17,22.80
2019,08,04,00,18,22.70
2019,08,04,00,19,22.70
2019,08,04,00,20,22.70
2019,08,04,00,21,22.70
2019,08,04,00,22,22.60
2019,08,04,00,23,22.60
2019,08,04,00,24,22.60
2019,08,04,00,25,22.60
2019,08,04,00,26,22.60
2019,08,04,00,27,22.60
2019,08,04,00,28,22.60
2019,08,04,00,29,22.60
2019,08,04,00,30,22.60
2019,08,04,00,31,22.60
2019,08,04,00,32,22.60
2019,08,04,00,33,22.60
2019,08,04,00,34,22.70
2019,08,04,00,35,22.70
2019,08,04,00,36,22.70
2019,08,04,00,37,22.70
2019,08,04,00,38,22.80
2019,08,04,00,39,22.80
2019,08,04,00,40,22.80
2019,08,04,00,41,22.80
2019,08,04,00,42,22.80
2019,08,04,00,43,22.80
2019,08,04,00,44,22.80
2019,08,04,00,45,22.80
2019,08,04,00,46,22.80
2019,08,04,00,47,22.80
2019,08,04,00,48,22.80
2019,08,04,00,49,22.80
2019,08,04,00,50,22.80
2019,08,04,00,51,22.80
2019,08,04,00,52,22.80
2019,08,04,00,53,22.80
2019,08,04,00,54,22.70
2019,08,04,00,55,22.70
2019,08,04,00,56,22.70
2019,08,04,00,57,22.70
2019,08,04,00,58,22.70
2019,08,04,00,59,22.70
2019,08,04,01,00,22.60
2019,08,04,01,01,22.50
2019,08,04,01,02,22.50
2019,08,04,01,03,22.40
2019,08,04,01,04,22.30
2019,08,04,01,05,22.20
2019,08,04,01,06,22.00
2019,08,04,01,07,21.90
2019,08,04,01,08,21.80
2019,08,04,01,09,21.70
2019,08,04,01,10,21.60
2019,08,04,01,11,21.60
2019,08,04,01,12,21.50
2019,08,04,01,13,21.50
2019,08,04,01,14,21.40
2019,08,04,01,15,21.40
2019,08,04,01,16,21.40
2019,08,04,01,17,21.30
2019,08,04,01,18,21.30
2019,08,04,01,19,21.30
2019,08,04,01,20,21.30
2019,08,04,01,21,21.20
2019,08,04,01,22,21.20
2019,08,04,01,23,21.10
2019,08,04,01,24,21.10
2019,08,04,01,25,21.10
2019,08,04,01,26,21.00
2019,08,04,01,27,21.00
2019,08,04,01,28,20.90
2019,08,04,01,29,20.90
2019,08,04,01,30,20.90
2019,08,04,01,31,20.80
2019,08,04,01,32,20.80
2019,08,04,01,33,20.80
2019,08,04,01,34,20.80
2019,08,04,01,35,20.80
2019,08,04,01,36,20.70
2019,08,04,01,37,20.70
2019,08,04,01,38,20.60
2019,08,04,01,39,20.60
2019,08,04,01,40,20.60
2019,08,04,01,41,20.60
2019,08,04,01,42,20.50
2019,08,04,01,43,20.50
2019,08,04,01,44,20.40
2019,08,04,01,45,20.40
2019,08,04,01,46,20.40
2019,08,04,01,47,20.30
2019,08,04,01,48,20.30
2019,08,04,01,49,20.30
2019,08,04,01,50,20.30
2019,08,04,01,51,20.30
2019,08,04,01,52,20.30
2019,08,04,01,53,20.30
2019,08,04,01,54,20.30
2019,08,04,01,55,20.30
2019,08,04,01,56,20.20
2019,08,04,01,57,20.20
2019,08,04,01,58,20.20
2019,08,04,01,59,20.20
2019,08,04,02,00,20.20
2019,08,04,02,01,20.20
2019,08,04,02,02,20.20
2019,08,04,02,03,20.20
2019,08,04,02,04,20.10
2019,08,04,02,05,20.10
2019,08,04,02,06,20.20
2019,08,04,02,07,20.10
2019,08,04,02,08,20.10
2019,08,04,02,09,20.10
2019,08,04,02,10,20.10
2019,08,04,02,11,20.10
2019,08,04,02,12,20.10
2019,08,04,02,13,20.00
2019,08,04,02,14,20.00
2019,08,04,02,15,20.00
2019,08,04,02,16,20.00
2019,08,04,02,17,20.00
2019,08,04,02,18,19.90
2019,08,04,02,19,19.90
2019,08,04,02,20,19.90
2019,08,04,02,21,19.90
2019,08,04,02,22,19.90
2019,08,04,02,23,19.90
2019,08,04,02,24,19.90
2019,08,04,02,25,19.90
2019,08,04,02,26,19.90
2019,08,04,02,27,19.90
2019,08,04,02,28,19.90
2019,08,04,02,29,19.90
2019,08,04,02,30,19.90
2019,08,04,02,31,19.90
2019,08,04,02,32,19.90
2019,08,04,02,33,19.90
2019,08,04,02,34,19.90
2019,08,04,02,35,19.90
2019,08,04,02,36,19.90
2019,08,04,02,37,19.90
2019,08,04,02,38,19.90
2019,08,04,02,39,19.80
2019,08,04,02,40,19.80
2019,08,04,02,41,19.80
2019,08,04,02,42,19.80
2019,08,04,02,43,19.80
2019,08,04,02,44,19.80
2019,08,04,02,45,19.80
2019,08,04,02,46,19.80
2019,08,04,02,47,19.80
2019,08,04,02,48,19.70
2019,08,04,02,49,19.70
2019,08,04,02,50,19.70
2019,08,04,02,51,19.70
2019,08,04,02,52,19.70
2019,08,04,02,53,19.70
2019,08,04,02,54,19.70
2019,08,04,02,55,19.70
2019,08,04,02,56,19.70
2019,08,04,02,57,19.70
2019,08,04,02,58,19.70
2019,08,04,02,59,19.70
2019,08,04,03,00,19.70
2019,08,04,03,01,19.70
2019,08,04,03,02,19.70
2019,08,04,03,03,19.70
2019,08,04,03,04,19.70
2019,08,04,03,05,19.70
2019,08,04,03,06,19.70
2019,08,04,03,07,19.70
2019,08,04,03,08,19.70
2019,08,04,03,09,19.70
2019,08,04,03,10,19.70
2019,08,04,03,11,19.70
2019,08,04,03,12,19.70
2019,08,04,03,13,19.70
2019,08,04,03,14,19.70
2019,08,04,03,15,19.70
2019,08,04,03,16,19.60
2019,08,04,03,17,19.60
2019,08,04,03,18,19.60
2019,08,04,03,19,19.50
2019,08,04,03,20,19.50
2019,08,04,03,21,19.50
2019,08,04,03,22,19.40
2019,08,04,03,23,19.40
2019,08,04,03,24,19.40
2019,08,04,03,25,19.40
2019,08,04,03,26,19.40
2019,08,04,03,27,19.40
2019,08,04,03,28,19.40
2019,08,04,03,29,19.40
2019,08,04,03,30,19.40
2019,08,04,03,31,19.40
2019,08,04,03,32,19.40
2019,08,04,03,33,19.40
2019,08,04,03,34,19.40
2019,08,04,03,35,19.40
2019,08,04,03,36,19.40
2019,08,04,03,37,19.40
2019,08,04,03,38,19.40
2019,08,04,03,39,19.40
2019,08,04,03,40,19.40
2019,08,04,03,41,19.40
2019,08,04,03,42,19.30
2019,08,04,03,43,19.30
2019,08,04,03,44,19.30
2019,08,04,03,45,19.30
2019,08,04,03,46,19.30
2019,08,04,03,47,19.30
2019,08,04,03,48,19.30
2019,08,04,03,49,19.30
2019,08,04,03,50,19.30
2019,08,04,03,51,19.30
2019,08,04,03,52,19.30
2019,08,04,03,53,19.30
2019,08,04,03,54,19.30
2019,08,04,03,55,19.30
2019,08,04,03,56,19.30
2019,08,04,03,57,19.30
2019,08,04,03,58,19.30
2019,08,04,03,59,19.30
2019,08,04,04,00,19.30
2019,08,04,04,01,19.30
2019,08,04,04,02,19.30
2019,08,04,04,03,19.30
2019,08,04,04,04,19.30
2019,08,04,04,05,19.30
2019,08,04,04,06,19.30
2019,08,04,04,07,19.30
2019,08,04,04,08,19.20
2019,08,04,04,09,19.20
2019,08,04,04,10,19.20
2019,08,04,04,11,19.20
2019,08,04,04,12,19.20
2019,08,04,04,13,19.20
2019,08,04,04,14,19.20
2019,08,04,04,15,19.20
2019,08,04,04,16,19.20
2019,08,04,04,17,19.20
2019,08,04,04,18,19.20
2019,08,04,04,19,19.20
2019,08,04,04,20,19.20
2019,08,04,04,21,19.20
2019,08,04,04,22,19.10
2019,08,04,04,23,19.10
2019,08,04,04,24,19.10
2019,08,04,04,25,19.10
2019,08,04,04,26,19.10
2019,08,04,04,27,19.10
2019,08,04,04,28,19.10
2019,08,04,04,29,19.10
2019,08,04,04,30,19.10
2019,08,04,04,31,19.10
2019,08,04,04,32,19.10
2019,08,04,04,33,19.10
2019,08,04,04,34,19.10
2019,08,04,04,35,19.10
2019,08,04,04,36,19.10
2019,08,04,04,37,19.10
2019,08,04,04,38,19.10
2019,08,04,04,39,19.10
2019,08,04,04,40,19.00
2019,08,04,04,41,19.00
2019,08,04,04,42,19.00
2019,08,04,04,43,19.00
2019,08,04,04,44,18.90
2019,08,04,04,45,18.90
2019,08,04,04,46,18.90
2019,08,04,04,47,18.90
2019,08,04,04,48,18.90
2019,08,04,04,49,18.90
2019,08,04,04,50,18.90
2019,08,04,04,51,18.90
2019,08,04,04,52,18.90
2019,08,04,04,53,18.90
2019,08,04,04,54,18.90
2019,08,04,04,55,18.90
2019,08,04,04,56,18.90
2019,08,04,04,57,18.90
2019,08,04,04,58,18.90
2019,08,04,04,59,18.90
2019,08,04,05,00,18.90
2019,08,04,05,01,18.90
2019,08,04,05,02,18.90
2019,08,04,05,03,18.80
2019,08,04,05,04,18.80
2019,08,04,05,05,18.80
2019,08,04,05,06,18.80
2019,08,04,05,07,18.80
2019,08,04,05,08,18.80
2019,08,04,05,09,18.80
2019,08,04,05,10,18.80
2019,08,04,05,11,18.80
2019,08,04,05,12,18.80
2019,08,04,05,13,18.80
2019,08,04,05,14,18.80
2019,08,04,05,15,18.70
2019,08,04,05,16,18.70
2019,08,04,05,17,18.70
2019,08,04,05,18,18.70
2019,08,04,05,19,18.70
2019,08,04,05,20,18.70
2019,08,04,05,21,18.70
2019,08,04,05,22,18.70
2019,08,04,05,23,18.70
2019,08,04,05,24,18.70
2019,08,04,05,25,18.70
2019,08,04,05,26,18.70
2019,08,04,05,27,18.70
2019,08,04,05,28,18.70
2019,08,04,05,29,18.70
2019,08,04,05,30,18.70
2019,08,04,05,31,18.70
2019,08,04,05,32,18.70
2019,08,04,05,33,18.70
2019,08,04,05,34,18.70
2019,08,04,05,35,18.70
2019,08,04,05,36,18.70
2019,08,04,05,37,18.60
2019,08,04,05,38,18.60
2019,08,04,05,39,18.60
2019,08,04,05,40,18.60
2019,08,04,05,41,18.60
2019,08,04,05,42,18.60
2019,08,04,05,43,18.60
2019,08,04,05,44,18.60
2019,08,04,05,45,18.60
2019,08,04,05,46,18.60
2019,08,04,05,47,18.60
2019,08,04,05,48,18.50
2019,08,04,05,49,18.50
2019,08,04,05,50,18.50
2019,08,04,05,51,18.50
2019,08,04,05,52,18.50
2019,08,04,05,53,18.50
2019,08,04,05,54,18.50
2019,08,04,05,55,18.40
2019,08,04,05,56,18.40
2019,08,04,05,57,18.40
2019,08,04,05,58,18.50
2019,08,04,05,59,18.50
2019,08,04,06,00,18.50
2019,08,04,06,01,18.50
2019,08,04,06,02,18.50
2019,08,04,06,03,18.50
2019,08,04,06,04,18.50
2019,08,04,06,05,18.50
2019,08,04,06,06,18.50
2019,08,04,06,07,18.50
2019,08,04,06,08,18.50
2019,08,04,06,09,18.40
2019,08,04,06,10,18.40
2019,08,04,06,11,18.40
2019,08,04,06,12,18.40
2019,08,04,06,13,18.40
2019,08,04,06,14,18.40
2019,08,04,06,15,18.40
2019,08,04,06,16,18.40
2019,08,04,06,17,18.40
2019,08,04,06,18,18.40
2019,08,04,06,19,18.40
2019,08,04,06,20,18.40
2019,08,04,06,21,18.40
2019,08,04,06,22,18.40
2019,08,04,06,23,18.40
2019,08,04,06,24,18.40
2019,08,04,06,25,18.40
2019,08,04,06,26,18.40
2019,08,04,06,27,18.40
2019,08,04,06,28,18.40
2019,08,04,06,29,18.50
2019,08,04,06,30,18.50
2019,08,04,06,31,18.50
2019,08,04,06,32,18.50
2019,08,04,06,33,18.60
2019,08,04,06,34,18.60
2019,08,04,06,35,18.60
2019,08,04,06,36,18.60
2019,08,04,06,37,18.70
2019,08,04,06,38,18.70
2019,08,04,06,39,18.70
2019,08,04,06,40,18.70
2019,08,04,06,41,18.70
2019,08,04,06,42,18.70
2019,08,04,06,43,18.70
2019,08,04,06,44,18.70
2019,08,04,06,45,18.70
2019,08,04,06,46,18.70
2019,08,04,06,47,18.70
2019,08,04,06,48,18.80
2019,08,04,06,49,18.80
2019,08,04,06,50,18.80
2019,08,04,06,51,18.80
2019,08,04,06,52,18.80
2019,08,04,06,53,18.80
2019,08,04,06,54,18.80
2019,08,04,06,55,18.80
2019,08,04,06,56,18.90
2019,08,04,06,57,18.90
2019,08,04,06,58,18.90
2019,08,04,06,59,19.00
2019,08,04,07,00,19.10
2019,08,04,07,01,19.10
2019,08,04,07,02,19.10
2019,08,04,07,03,19.10
2019,08,04,07,04,19.20
2019,08,04,07,05,19.20
2019,08,04,07,06,19.20
2019,08,04,07,07,19.20
2019,08,04,07,08,19.20
2019,08,04,07,09,19.20
2019,08,04,07,10,19.20
2019,08,04,07,11,19.20
2019,08,04,07,12,19.20
2019,08,04,07,13,19.20
2019,08,04,07,14,19.20
2019,08,04,07,15,19.20
2019,08,04,07,16,19.20
2019,08,04,07,17,19.20
2019,08,04,07,18,19.20
2019,08,04,07,19,19.20
2019,08,04,07,20,19.20
2019,08,04,07,21,19.20
2019,08,04,07,22,19.20
2019,08,04,07,23,19.20
2019,08,04,07,24,19.30
2019,08,04,07,25,19.30
2019,08,04,07,26,19.30
2019,08,04,07,27,19.30
2019,08,04,07,28,19.30
2019,08,04,07,29,19.40
2019,08,04,07,30,19.40
2019,08,04,07,31,19.40
2019,08,04,07,32,19.40
2019,08,04,07,33,19.40
2019,08,04,07,34,19.40
2019,08,04,07,35,19.40
2019,08,04,07,36,19.40
2019,08,04,07,37,19.40
2019,08,04,07,38,19.50
2019,08,04,07,39,19.50
2019,08,04,07,40,19.50
2019,08,04,07,41,19.60
2019,08,04,07,42,19.60
2019,08,04,07,43,19.60
2019,08,04,07,44,19.60
2019,08,04,07,45,19.60
2019,08,04,07,46,19.60
2019,08,04,07,47,19.60
2019,08,04,07,48,19.50
2019,08,04,07,49,19.50
2019,08,04,07,50,19.50
2019,08,04,07,51,19.50
2019,08,04,07,52,19.50
2019,08,04,07,53,19.50
2019,08,04,07,54,19.50
2019,08,04,07,55,19.50
2019,08,04,07,56,19.50
2019,08,04,07,57,19.40
2019,08,04,07,58,19.40
2019,08,04,07,59,19.40
2019,08,04,08,00,19.40
2019,08,04,08,01,19.40
2019,08,04,08,02,19.40
2019,08,04,08,03,19.40
2019,08,04,08,04,19.40
2019,08,04,08,05,19.50
2019,08,04,08,06,19.50
2019,08,04,08,07,19.60
2019,08,04,08,08,19.60
2019,08,04,08,09,19.60
2019,08,04,08,10,19.60
2019,08,04,08,11,19.60
2019,08,04,08,12,19.70
2019,08,04,08,13,19.70
2019,08,04,08,14,19.70
2019,08,04,08,15,19.80
2019,08,04,08,16,19.80
2019,08,04,08,17,19.80
2019,08,04,08,18,19.80
2019,08,04,08,19,19.80
2019,08,04,08,20,19.80
2019,08,04,08,21,19.90
2019,08,04,08,22,19.90
2019,08,04,08,23,20.00
2019,08,04,08,24,20.00
2019,08,04,08,25,20.00
2019,08,04,08,26,20.00
2019,08,04,08,27,20.00
2019,08,04,08,28,20.00
2019,08,04,08,29,20.00
2019,08,04,08,30,20.00
2019,08,04,08,31,20.00
2019,08,04,08,32,20.00
2019,08,04,08,33,20.10
2019,08,04,08,34,20.10
2019,08,04,08,35,20.20
2019,08,04,08,36,20.20
2019,08,04,08,37,20.20
2019,08,04,08,38,20.20
2019,08,04,08,39,20.20
2019,08,04,08,40,20.20
2019,08,04,08,41,20.20
2019,08,04,08,42,20.20
2019,08,04,08,43,20.20
2019,08,04,08,44,20.30
2019,08,04,08,45,20.30
2019,08,04,08,46,20.30
2019,08,04,08,47,20.40
2019,08,04,08,48,20.40
2019,08,04,08,49,20.40
2019,08,04,08,50,20.40
2019,08,04,08,51,20.40
2019,08,04,08,52,20.40
2019,08,04,08,53,20.40
2019,08,04,08,54,20.40
2019,08,04,08,55,20.40
2019,08,04,08,56,20.40
2019,08,04,08,57,20.40
2019,08,04,08,58,20.30
2019,08,04,08,59,20.30
2019,08,04,09,00,20.20
2019,08,04,09,01,20.20
2019,08,04,09,02,20.20
2019,08,04,09,03,20.20
2019,08,04,09,04,20.20
2019,08,04,09,05,20.20
2019,08,04,09,06,20.20
2019,08,04,09,07,20.30
2019,08,04,09,08,20.30
2019,08,04,09,09,20.30
2019,08,04,09,10,20.40
2019,08,04,09,11,20.40
2019,08,04,09,12,20.40
2019,08,04,09,13,20.40
2019,08,04,09,14,20.50
2019,08,04,09,15,20.50
2019,08,04,09,16,20.50
2019,08,04,09,17,20.50
2019,08,04,09,18,20.60
2019,08,04,09,19,20.60
2019,08,04,09,20,20.70
2019,08,04,09,21,20.70
2019,08,04,09,22,20.80
2019,08,04,09,23,20.80
2019,08,04,09,24,20.80
2019,08,04,09,25,20.80
2019,08,04,09,26,20.80
2019,08,04,09,27,20.90
2019,08,04,09,28,20.90
2019,08,04,09,29,21.00
2019,08,04,09,30,21.10
2019,08,04,09,31,21.10
2019,08,04,09,32,21.10
2019,08,04,09,33,21.10
2019,08,04,09,34,21.10
2019,08,04,09,35,21.10
2019,08,04,09,36,21.20
2019,08,04,09,37,21.20
2019,08,04,09,38,21.20
2019,08,04,09,39,21.20
2019,08,04,09,40,21.20
2019,08,04,09,41,21.20
2019,08,04,09,42,21.20
2019,08,04,09,43,21.30
2019,08,04,09,44,21.30
2019,08,04,09,45,21.30
2019,08,04,09,46,21.20
2019,08,04,09,47,21.10
2019,08,04,09,48,21.00
2019,08,04,09,49,20.90
2019,08,04,09,50,20.80
2019,08,04,09,51,20.80
2019,08,04,09,52,20.70
2019,08,04,09,53,20.60
2019,08,04,09,54,20.60
2019,08,04,09,55,20.50
2019,08,04,09,56,20.40
2019,08,04,09,57,20.40
2019,08,04,09,58,20.40
2019,08,04,09,59,20.30
2019,08,04,10,00,20.30
2019,08,04,10,01,20.40
2019,08,04,10,02,20.40
2019,08,04,10,03,20.50
2019,08,04,10,04,20.50
2019,08,04,10,05,20.50
2019,08,04,10,06,20.50
2019,08,04,10,07,20.50
2019,08,04,10,08,20.60
2019,08,04,10,09,20.60
2019,08,04,10,10,20.50
2019,08,04,10,11,20.50
2019,08,04,10,12,20.50
2019,08,04,10,13,20.50
2019,08,04,10,14,20.50
2019,08,04,10,15,20.60
2019,08,04,10,16,20.60
2019,08,04,10,17,20.70
2019,08,04,10,18,20.70
2019,08,04,10,19,20.70
2019,08,04,10,20,20.80
2019,08,04,10,21,20.80
2019,08,04,10,22,20.80
2019,08,04,10,23,20.90
2019,08,04,10,24,20.90
2019,08,04,10,25,20.90
2019,08,04,10,26,20.90
2019,08,04,10,27,20.80
2019,08,04,10,28,20.80
2019,08,04,10,29,20.70
2019,08,04,10,30,20.70
2019,08,04,10,31,20.70
2019,08,04,10,32,20.70
2019,08,04,10,33,20.70
2019,08,04,10,34,20.60
2019,08,04,10,35,20.60
2019,08,04,10,36,20.50
2019,08,04,10,37,20.40
2019,08,04,10,38,20.30
2019,08,04,10,39,20.30
2019,08,04,10,40,20.30
2019,08,04,10,41,20.40
2019,08,04,10,42,20.40
2019,08,04,10,43,20.40
2019,08,04,10,44,20.40
2019,08,04,10,45,20.50
2019,08,04,10,46,20.50
2019,08,04,10,47,20.60
2019,08,04,10,48,20.60
2019,08,04,10,49,20.60
2019,08,04,10,50,20.60
2019,08,04,10,51,20.60
2019,08,04,10,52,20.50
2019,08,04,10,53,20.50
2019,08,04,10,54,20.50
2019,08,04,10,55,20.60
2019,08,04,10,56,20.60
2019,08,04,10,57,20.60
2019,08,04,10,58,20.70
2019,08,04,10,59,20.80
2019,08,04,11,00,20.80
2019,08,04,11,01,20.90
2019,08,04,11,02,20.90
2019,08,04,11,03,20.80
2019,08,04,11,04,20.80
2019,08,04,11,05,20.80
2019,08,04,11,06,20.90
2019,08,04,11,07,20.90
2019,08,04,11,08,20.80
2019,08,04,11,09,20.80
2019,08,04,11,10,20.80
2019,08,04,11,11,20.80
2019,08,04,11,12,20.80
2019,08,04,11,13,20.80
2019,08,04,11,14,20.80
2019,08,04,11,15,20.90
2019,08,04,11,16,21.00
2019,08,04,11,17,21.00
2019,08,04,11,18,21.00
2019,08,04,11,19,21.00
2019,08,04,11,20,21.10
2019,08,04,11,21,21.10
2019,08,04,11,22,21.10
2019,08,04,11,23,21.10
2019,08,04,11,24,21.10
2019,08,04,11,25,21.10
2019,08,04,11,26,21.10
2019,08,04,11,27,21.10
2019,08,04,11,28,21.10
2019,08,04,11,29,21.10
2019,08,04,11,30,21.10
2019,08,04,11,31,21.20
2019,08,04,11,32,21.30
2019,08,04,11,33,21.30
2019,08,04,11,34,21.30
2019,08,04,11,35,21.30
2019,08,04,11,36,21.30
2019,08,04,11,37,21.20
2019,08,04,11,38,21.30
2019,08,04,11,39,21.30
2019,08,04,11,40,21.30
2019,08,04,11,41,21.40
2019,08,04,11,42,21.40
2019,08,04,11,43,21.50
2019,08,04,11,44,21.60
2019,08,04,11,45,21.60
2019,08,04,11,46,21.50
2019,08,04,11,47,21.50
2019,08,04,11,48,21.40
2019,08,04,11,49,21.40
2019,08,04,11,50,21.40
2019,08,04,11,51,21.30
2019,08,04,11,52,21.30
2019,08,04,11,53,21.40
2019,08,04,11,54,21.40
2019,08,04,11,55,21.40
2019,08,04,11,56,21.40
2019,08,04,11,57,21.40
2019,08,04,11,58,21.40
2019,08,04,11,59,21.30
2019,08,04,12,00,21.30
2019,08,04,12,01,21.30
2019,08,04,12,02,21.20
2019,08,04,12,03,21.10
2019,08,04,12,04,21.10
2019,08,04,12,05,21.10
2019,08,04,12,06,21.10
2019,08,04,12,07,21.10
2019,08,04,12,08,21.10
2019,08,04,12,09,21.20
2019,08,04,12,10,21.30
2019,08,04,12,11,21.40
2019,08,04,12,12,21.40
2019,08,04,12,13,21.40
2019,08,04,12,14,21.40
2019,08,04,12,15,21.50
2019,08,04,12,16,21.50
2019,08,04,12,17,21.60
2019,08,04,12,18,21.70
2019,08,04,12,19,21.80
2019,08,04,12,20,21.80
2019,08,04,12,21,21.80
2019,08,04,12,22,21.80
2019,08,04,12,23,21.80
2019,08,04,12,24,21.80
2019,08,04,12,25,21.80
2019,08,04,12,26,21.80
2019,08,04,12,27,21.90
2019,08,04,12,28,21.90
2019,08,04,12,29,21.90
2019,08,04,12,30,21.90
2019,08,04,12,31,21.80
2019,08,04,12,32,21.80
2019,08,04,12,33,21.80
2019,08,04,12,34,21.70
2019,08,04,12,35,21.70
2019,08,04,12,36,21.70
2019,08,04,12,37,21.70
2019,08,04,12,38,21.70
2019,08,04,12,39,21.70
2019,08,04,12,40,21.70
2019,08,04,12,41,21.70
2019,08,04,12,42,21.60
2019,08,04,12,43,21.50
2019,08,04,12,44,21.40
2019,08,04,12,45,21.40
2019,08,04,12,46,21.30
2019,08,04,12,47,21.30
2019,08,04,12,48,21.30
2019,08,04,12,49,21.30
2019,08,04,12,50,21.30
2019,08,04,12,51,21.40
2019,08,04,12,52,21.50
2019,08,04,12,53,21.60
2019,08,04,12,54,21.70
2019,08,04,12,55,21.70
2019,08,04,12,56,21.70
2019,08,04,12,57,21.70
2019,08,04,12,58,21.70
2019,08,04,12,59,21.70
2019,08,04,13,00,21.70
2019,08,04,13,01,21.80
2019,08,04,13,02,21.80
2019,08,04,13,03,21.80
2019,08,04,13,04,21.80
2019,08,04,13,05,21.70
2019,08,04,13,06,21.70
2019,08,04,13,07,21.60
2019,08,04,13,08,21.60
2019,08,04,13,09,21.60
2019,08,04,13,10,21.60
2019,08,04,13,11,21.60
2019,08,04,13,12,21.70
2019,08,04,13,13,21.80
2019,08,04,13,14,21.80
2019,08,04,13,15,21.80
2019,08,04,13,16,21.80
2019,08,04,13,17,21.80
2019,08,04,13,18,21.80
2019,08,04,13,19,21.80
2019,08,04,13,20,21.80
2019,08,04,13,21,21.80
2019,08,04,13,22,21.80
2019,08,04,13,23,21.80
2019,08,04,13,24,21.80
2019,08,04,13,25,21.80
2019,08,04,13,26,21.80
2019,08,04,13,27,21.90
2019,08,04,13,28,22.00
2019,08,04,13,29,22.10
2019,08,04,13,30,22.20
2019,08,04,13,31,22.30
2019,08,04,13,32,22.40
2019,08,04,13,33,22.50
2019,08,04,13,34,22.60
2019,08,04,13,35,22.50
2019,08,04,13,36,22.50
2019,08,04,13,37,22.60
2019,08,04,13,38,22.70
2019,08,04,13,39,22.80
2019,08,04,13,40,22.90
2019,08,04,13,41,22.90
2019,08,04,13,42,22.90
2019,08,04,13,43,22.90
2019,08,04,13,44,22.90
2019,08,04,13,45,23.00
2019,08,04,13,46,23.00
2019,08,04,13,47,23.10
2019,08,04,13,48,23.10
2019,08,04,13,49,23.10
2019,08,04,13,50,23.20
2019,08,04,13,51,23.20
2019,08,04,13,52,23.20
2019,08,04,13,53,23.30
2019,08,04,13,54,23.30
2019,08,04,13,55,23.40
2019,08,04,13,56,23.40
2019,08,04,13,57,23.40
2019,08,04,13,58,23.40
2019,08,04,13,59,23.40
2019,08,04,14,00,23.40
2019,08,04,14,01,23.40
2019,08,04,14,02,23.40
2019,08,04,14,03,23.50
2019,08,04,14,04,23.50
2019,08,04,14,05,23.60
2019,08,04,14,06,23.60
2019,08,04,14,07,23.70
2019,08,04,14,08,23.70
2019,08,04,14,09,23.80
2019,08,04,14,10,23.80
2019,08,04,14,11,23.80
2019,08,04,14,12,23.80
2019,08,04,14,13,23.80
2019,08,04,14,14,23.80
2019,08,04,14,15,23.90
2019,08,04,14,16,23.90
2019,08,04,14,17,23.90
2019,08,04,14,18,23.90
2019,08,04,14,19,23.80
2019,08,04,14,20,23.80
2019,08,04,14,21,23.90
2019,08,04,14,22,23.90
2019,08,04,14,23,24.00
2019,08,04,14,24,24.10
2019,08,04,14,25,24.20
2019,08,04,14,26,24.20
2019,08,04,14,27,24.30
2019,08,04,14,28,24.40
2019,08,04,14,29,24.40
2019,08,04,14,30,24.40
2019,08,04,14,31,24.40
2019,08,04,14,32,24.40
2019,08,04,14,33,24.40
2019,08,04,14,34,24.40
2019,08,04,14,35,24.50
2019,08,04,14,36,24.60
2019,08,04,14,37,24.50
2019,08,04,14,38,24.50
2019,08,04,14,39,24.50
2019,08,04,14,40,24.60
2019,08,04,14,41,24.60
2019,08,04,14,42,24.60
2019,08,04,14,43,24.60
2019,08,04,14,44,24.60
2019,08,04,14,45,24.70
2019,08,04,14,46,24.70
2019,08,04,14,47,24.70
2019,08,04,14,48,24.70
2019,08,04,14,49,24.70
2019,08,04,14,50,24.80
2019,08,04,14,51,24.90
2019,08,04,14,52,25.00
2019,08,04,14,53,25.10
2019,08,04,14,54,25.20
2019,08,04,14,55,25.30
2019,08,04,14,56,25.30
2019,08,04,14,57,25.30
2019,08,04,14,58,25.40
2019,08,04,14,59,25.50
2019,08,04,15,00,25.60
2019,08,04,15,01,25.60
2019,08,04,15,02,25.60
2019,08,04,15,03,25.70
2019,08,04,15,04,25.80
2019,08,04,15,05,25.80
2019,08,04,15,06,25.80
2019,08,04,15,07,25.70
2019,08,04,15,08,25.70
2019,08,04,15,09,25.70
2019,08,04,15,10,25.70
2019,08,04,15,11,25.70
2019,08,04,15,12,25.70
2019,08,04,15,13,25.80
2019,08,04,15,14,25.80
2019,08,04,15,15,25.90
2019,08,04,15,16,25.90
2019,08,04,15,17,25.90
2019,08,04,15,18,25.90
2019,08,04,15,19,26.00
2019,08,04,15,20,26.00
2019,08,04,15,21,26.10
2019,08,04,15,22,26.10
2019,08,04,15,23,26.20
2019,08,04,15,24,26.20
2019,08,04,15,25,26.20
2019,08,04,15,26,26.20
2019,08,04,15,27,26.20
2019,08,04,15,28,26.20
2019,08,04,15,29,26.20
2019,08,04,15,30,26.20
2019,08,04,15,31,26.20
2019,08,04,15,32,26.10
2019,08,04,15,33,26.20
2019,08,04,15,34,26.10
2019,08,04,15,35,26.10
2019,08,04,15,36,26.00
2019,08,04,15,37,26.00
2019,08,04,15,38,26.00
2019,08,04,15,39,25.90
2019,08,04,15,40,25.90
2019,08,04,15,41,25.90
2019,08,04,15,42,25.90
2019,08,04,15,43,25.90
2019,08,04,15,44,25.90
2019,08,04,15,45,25.90
2019,08,04,15,46,25.90
2019,08,04,15,47,25.90
2019,08,04,15,48,25.90
2019,08,04,15,49,25.90
2019,08,04,15,50,25.90
2019,08,04,15,51,25.90
2019,08,04,15,52,26.00
2019,08,04,15,53,26.10
2019,08,04,15,54,26.10
2019,08,04,15,55,26.00
2019,08,04,15,56,26.00
2019,08,04,15,57,25.90
2019,08,04,15,58,25.90
2019,08,04,15,59,25.90
2019,08,04,16,00,25.90
2019,08,04,16,01,25.90
2019,08,04,16,02,25.90
2019,08,04,16,03,26.00
2019,08,04,16,04,26.10
2019,08,04,16,05,26.20
2019,08,04,16,06,26.20
2019,08,04,16,07,26.20
2019,08,04,16,08,26.20
2019,08,04,16,09,26.10
2019,08,04,16,10,26.10
2019,08,04,16,11,26.20
2019,08,04,16,12,26.20
2019,08,04,16,13,26.30
2019,08,04,16,14,26.30
2019,08,04,16,15,26.40
2019,08,04,16,16,26.40
2019,08,04,16,17,26.40
2019,08,04,16,18,26.40
2019,08,04,16,19,26.50
2019,08,04,16,20,26.50
2019,08,04,16,21,26.50
2019,08,04,16,22,26.50
2019,08,04,16,23,26.50
2019,08,04,16,24,26.60
2019,08,04,16,25,26.60
2019,08,04,16,26,26.50
2019,08,04,16,27,26.50
2019,08,04,16,28,26.60
2019,08,04,16,29,26.60
2019,08,04,16,30,26.60
2019,08,04,16,31,26.60
2019,08,04,16,32,26.60
2019,08,04,16,33,26.60
2019,08,04,16,34,26.60
2019,08,04,16,35,26.60
2019,08,04,16,36,26.60
2019,08,04,16,37,26.50
2019,08,04,16,38,26.50
2019,08,04,16,39,26.50
2019,08,04,16,40,26.60
2019,08,04,16,41,26.60
2019,08,04,16,42,26.60
2019,08,04,16,43,26.60
2019,08,04,16,44,26.60
2019,08,04,16,45,26.70
2019,08,04,16,46,26.80
2019,08,04,16,47,26.80
2019,08,04,16,48,26.80
2019,08,04,16,49,26.70
2019,08,04,16,50,26.70
2019,08,04,16,51,26.70
2019,08,04,16,52,26.70
2019,08,04,16,53,26.80
2019,08,04,16,54,26.80
2019,08,04,16,55,26.80
2019,08,04,16,56,26.80
2019,08,04,16,57,26.90
2019,08,04,16,58,26.90
2019,08,04,16,59,26.90
2019,08,04,17,00,26.90
2019,08,04,17,01,27.00
2019,08,04,17,02,27.00
2019,08,04,17,03,27.10
2019,08,04,17,04,27.20
2019,08,04,17,05,27.20
2019,08,04,17,06,27.30
2019,08,04,17,07,27.20
2019,08,04,17,08,27.20
2019,08,04,17,09,27.20
2019,08,04,17,10,27.20
2019,08,04,17,11,27.20
2019,08,04,17,12,27.20
2019,08,04,17,13,27.20
2019,08,04,17,14,27.20
2019,08,04,17,15,27.20
2019,08,04,17,16,27.30
2019,08,04,17,17,27.30
2019,08,04,17,18,27.30
2019,08,04,17,19,27.40